| time (UTC) | temp C | wind direction | speed KPH | gust KPH | rain 1hr cm | rain 24hr cm | rain mn cm | humidity % | barometer mb |
| 20260506050922 | 2 | 124 | 0.0 | 1.6 | 0.00 | 0.00 | 0.00 | 77 | 1018.7 |
| 20260506050910 | 2 | 124 | 0.0 | 1.6 | 0.00 | 0.00 | 0.00 | 77 | 1018.8 |
| 20260506044413 | 2 | 123 | 0.0 | 3.2 | 0.00 | 0.00 | 0.00 | 74 | 1018.8 |
| 20260506043911 | 3 | 124 | 0.0 | 3.2 | 0.00 | 0.00 | 0.00 | 74 | 1018.7 |
| 20260506043408 | 3 | 123 | 0.0 | 3.2 | 0.00 | 0.00 | 0.00 | 73 | 1018.7 |
| 20260506042909 | 3 | 123 | 0.0 | 3.2 | 0.00 | 0.00 | 0.00 | 73 | 1018.8 |
| 20260506042408 | 3 | 124 | 0.0 | 0.0 | 0.00 | 0.00 | 0.00 | 72 | 1018.7 |
| 20260506041908 | 3 | 124 | 0.0 | 0.0 | 0.00 | 0.00 | 0.00 | 71 | 1018.7 |
| 20260506041629 | 3 | 124 | 0.0 | 0.0 | 0.00 | 0.00 | 0.00 | 70 | 1018.8 |
| 20260506040906 | 3 | 124 | 0.0 | 0.0 | 0.00 | 0.00 | 0.00 | 69 | 1018.7 |
| 20260506040400 | 4 | 124 | 0.0 | 0.0 | 0.00 | 0.00 | 0.00 | 69 | 1018.6 |
| 20260506035857 | 4 | 124 | 0.0 | 0.0 | 0.00 | 0.00 | 0.00 | 69 | 1018.6 |
| 20260506035355 | 4 | 124 | 0.0 | 0.0 | 0.00 | 0.00 | 0.00 | 68 | 1018.6 |
| 20260506035117 | 5 | 124 | 0.0 | 0.0 | 0.00 | 0.00 | 0.00 | 66 | 1018.6 |
| 20260506034355 | 5 | 124 | 0.0 | 0.0 | 0.00 | 0.00 | 0.00 | 66 | 1018.7 |
| 20260506033857 | 5 | 124 | 0.0 | 0.0 | 0.00 | 0.00 | 0.00 | 65 | 1018.6 |
| 20260506033350 | 6 | 124 | 0.0 | 0.0 | 0.00 | 0.00 | 0.00 | 63 | 1018.5 |
| 20260506033108 | 6 | 124 | 0.0 | 0.0 | 0.00 | 0.00 | 0.00 | 62 | 1018.5 |
| 20260506032341 | 6 | 124 | 0.0 | 0.0 | 0.00 | 0.00 | 0.00 | 61 | 1018.5 |
| 20260506031841 | 6 | 124 | 0.0 | 0.0 | 0.00 | 0.00 | 0.00 | 59 | 1018.5 |
| 20260506031605 | 7 | 124 | 0.0 | 0.0 | 0.00 | 0.00 | 0.00 | 58 | 1018.5 |
| 20260506030844 | 7 | 124 | 0.0 | 0.0 | 0.00 | 0.00 | 0.00 | 58 | 1018.4 |
| 20260506030341 | 8 | 124 | 0.0 | 0.0 | 0.00 | 0.00 | 0.00 | 57 | 1018.4 |
| 20260506025836 | 8 | 124 | 0.0 | 0.0 | 0.00 | 0.00 | 0.00 | 56 | 1018.3 |
| 20260506025335 | 8 | 124 | 0.0 | 0.0 | 0.00 | 0.00 | 0.00 | 54 | 1018.3 |
| 20260506024832 | 8 | 124 | 0.0 | 0.0 | 0.00 | 0.00 | 0.00 | 53 | 1018.3 |
| 20260506024333 | 9 | 124 | 0.0 | 0.0 | 0.00 | 0.00 | 0.00 | 53 | 1018.2 |
| 20260506023827 | 9 | 124 | 0.0 | 0.0 | 0.00 | 0.00 | 0.00 | 52 | 1018.3 |
| 20260506023553 | 9 | 124 | 0.0 | 0.0 | 0.00 | 0.00 | 0.00 | 48 | 1018.2 |
| 20260506022825 | 9 | 124 | 0.0 | 0.0 | 0.00 | 0.00 | 0.00 | 48 | 1018.2 |
| 20260506022323 | 9 | 124 | 0.0 | 0.0 | 0.00 | 0.00 | 0.00 | 46 | 1018.1 |
| 20260506021823 | 10 | 124 | 0.0 | 0.0 | 0.00 | 0.00 | 0.00 | 46 | 1018.1 |
| 20260506021324 | 10 | 124 | 0.0 | 3.2 | 0.00 | 0.00 | 0.00 | 46 | 1018.1 |
| 20260506021308 | 10 | 124 | 0.0 | 4.8 | 0.00 | 0.00 | 0.00 | 44 | 1018.1 |
| 20260506020326 | 10 | 124 | 0.0 | 4.8 | 0.00 | 0.00 | 0.00 | 45 | 1018.1 |
| 20260506015817 | 10 | 123 | 0.0 | 1.6 | 0.00 | 0.00 | 0.00 | 44 | 1018.1 |
| 20260506015750 | 10 | 124 | 0.0 | 4.8 | 0.00 | 0.00 | 0.00 | 43 | 1018.1 |
| 20260506014804 | 10 | 116 | 0.0 | 4.8 | 0.00 | 0.00 | 0.00 | 44 | 1018.1 |
| 20260506014304 | 10 | 67 | 0.0 | 3.2 | 0.00 | 0.00 | 0.00 | 43 | 1018.1 |
| 20260506014039 | 10 | 137 | 0.0 | 9.7 | 0.00 | 0.00 | 0.00 | 43 | 1017.9 |
| 20260506013304 | 10 | 138 | 1.6 | 9.7 | 0.00 | 0.00 | 0.00 | 42 | 1017.9 |
| 20260506012759 | 10 | 100 | 0.0 | 11.3 | 0.00 | 0.00 | 0.00 | 42 | 1017.9 |
| 20260506012259 | 10 | 130 | 1.6 | 11.3 | 0.00 | 0.00 | 0.00 | 42 | 1018.1 |
| 20260506011800 | 10 | 154 | 1.6 | 9.7 | 0.00 | 0.00 | 0.00 | 42 | 1017.9 |
| 20260506011301 | 10 | 136 | 3.2 | 11.3 | 0.00 | 0.00 | 0.00 | 43 | 1018.1 |
| 20260506010800 | 10 | 153 | 3.2 | 14.5 | 0.00 | 0.00 | 0.00 | 41 | 1018.1 |
| 20260506010301 | 10 | 126 | 1.6 | 14.5 | 0.00 | 0.00 | 0.00 | 42 | 1018.1 |
| 20260506005755 | 11 | 53 | 3.2 | 12.9 | 0.00 | 0.00 | 0.00 | 40 | 1018.1 |
| 20260506005251 | 11 | 127 | 1.6 | 11.3 | 0.00 | 0.00 | 0.00 | 39 | 1018.1 |
| 20260506004751 | 11 | 102 | 6.4 | 14.5 | 0.00 | 0.00 | 0.00 | 39 | 1018.1 |
| 20260506004250 | 11 | 345 | 3.2 | 16.1 | 0.00 | 0.00 | 0.00 | 39 | 1018.1 |
| 20260506003753 | 11 | 132 | 4.8 | 16.1 | 0.00 | 0.00 | 0.00 | 38 | 1018.1 |
| 20260506003513 | 12 | 128 | 1.6 | 14.5 | 0.00 | 0.00 | 0.00 | 38 | 1018.1 |
| 20260506002751 | 12 | 107 | 4.8 | 14.5 | 0.00 | 0.00 | 0.00 | 37 | 1018.1 |
| 20260506002247 | 12 | 49 | 4.8 | 14.5 | 0.00 | 0.00 | 0.00 | 37 | 1018.1 |
| 20260506001741 | 12 | 115 | 6.4 | 14.5 | 0.00 | 0.00 | 0.00 | 38 | 1018.1 |
| 20260506001241 | 12 | 134 | 3.2 | 14.5 | 0.00 | 0.00 | 0.00 | 36 | 1018.2 |
| 20260506000742 | 12 | 152 | 1.6 | 16.1 | 0.00 | 0.00 | 0.00 | 38 | 1018.2 |
| 20260506000241 | 12 | 188 | 3.2 | 16.1 | 0.00 | 0.00 | 0.00 | 37 | 1018.3 |
| 20260505235742 | 12 | 346 | 1.6 | 6.4 | 0.00 | 0.00 | 0.00 | 38 | 1018.2 |
| 20260505235245 | 12 | 182 | 0.0 | 12.9 | 0.00 | 0.00 | 0.00 | 36 | 1018.3 |
| 20260505234738 | 12 | 113 | 4.8 | 12.9 | 0.00 | 0.00 | 0.00 | 35 | 1018.3 |
| 20260505234232 | 12 | 100 | 3.2 | 16.1 | 0.00 | 0.00 | 0.00 | 35 | 1018.3 |
| 20260505233733 | 12 | 126 | 4.8 | 16.1 | 0.00 | 0.00 | 0.00 | 34 | 1018.2 |
| 20260505233233 | 12 | 90 | 1.6 | 11.3 | 0.00 | 0.00 | 0.00 | 35 | 1018.3 |
| 20260505232734 | 12 | 125 | 3.2 | 19.3 | 0.00 | 0.00 | 0.00 | 36 | 1018.4 |
| 20260505232234 | 12 | 95 | 3.2 | 19.3 | 0.00 | 0.00 | 0.00 | 35 | 1018.4 |
| 20260505231728 | 12 | 109 | 3.2 | 17.7 | 0.00 | 0.00 | 0.00 | 35 | 1018.4 |
| 20260505231228 | 12 | 141 | 1.6 | 17.7 | 0.00 | 0.00 | 0.00 | 35 | 1018.3 |
| 20260505230729 | 12 | 74 | 6.4 | 16.1 | 0.00 | 0.00 | 0.00 | 34 | 1018.3 |
| 20260505230229 | 12 | 94 | 3.2 | 20.9 | 0.00 | 0.00 | 0.00 | 34 | 1018.4 |
| 20260505225729 | 12 | 155 | 3.2 | 20.9 | 0.00 | 0.00 | 0.00 | 34 | 1018.3 |
| 20260505225229 | 12 | 143 | 6.4 | 17.7 | 0.00 | 0.00 | 0.00 | 34 | 1018.4 |
| 20260505224730 | 12 | 75 | 3.2 | 17.7 | 0.00 | 0.00 | 0.00 | 34 | 1018.5 |
| 20260505224228 | 12 | 111 | 1.6 | 16.1 | 0.00 | 0.00 | 0.00 | 36 | 1018.4 |
| 20260505223724 | 12 | 44 | 3.2 | 29.0 | 0.00 | 0.00 | 0.00 | 35 | 1018.4 |
| 20260505223225 | 12 | 5 | 3.2 | 29.0 | 0.00 | 0.00 | 0.00 | 36 | 1018.5 |
| 20260505222725 | 12 | 113 | 3.2 | 14.5 | 0.00 | 0.00 | 0.00 | 34 | 1018.5 |
| 20260505222225 | 12 | 103 | 1.6 | 20.9 | 0.00 | 0.00 | 0.00 | 34 | 1018.4 |
| 20260505221726 | 12 | 330 | 3.2 | 20.9 | 0.00 | 0.00 | 0.00 | 36 | 1018.5 |
| 20260505221225 | 12 | 151 | 4.8 | 19.3 | 0.00 | 0.00 | 0.00 | 34 | 1018.5 |
| 20260505220720 | 12 | 333 | 8.0 | 19.3 | 0.00 | 0.00 | 0.00 | 33 | 1018.6 |
| 20260505220216 | 12 | 144 | 3.2 | 14.5 | 0.00 | 0.00 | 0.00 | 35 | 1018.6 |
| 20260505215716 | 12 | 102 | 1.6 | 11.3 | 0.00 | 0.00 | 0.00 | 35 | 1018.5 |
| 20260505215219 | 12 | 138 | 4.8 | 17.7 | 0.00 | 0.00 | 0.00 | 33 | 1018.6 |
| 20260505214716 | 12 | 123 | 3.2 | 17.7 | 0.00 | 0.00 | 0.00 | 37 | 1018.6 |
| 20260505214216 | 11 | 86 | 1.6 | 12.9 | 0.00 | 0.00 | 0.00 | 36 | 1018.5 |
| 20260505213712 | 11 | 109 | 3.2 | 17.7 | 0.00 | 0.00 | 0.00 | 36 | 1018.7 |
| 20260505213211 | 12 | 136 | 9.7 | 20.9 | 0.00 | 0.00 | 0.00 | 35 | 1018.8 |
| 20260505212712 | 12 | 33 | 6.4 | 20.9 | 0.00 | 0.00 | 0.00 | 35 | 1018.7 |
| 20260505212212 | 11 | 173 | 4.8 | 14.5 | 0.00 | 0.00 | 0.00 | 39 | 1018.8 |
| 20260505211712 | 11 | 88 | 1.6 | 9.7 | 0.00 | 0.00 | 0.00 | 39 | 1018.8 |
| 20260505211212 | 11 | 257 | 0.0 | 11.3 | 0.00 | 0.00 | 0.00 | 37 | 1018.8 |
| 20260505210709 | 11 | 168 | 1.6 | 11.3 | 0.00 | 0.00 | 0.00 | 37 | 1018.9 |
| 20260505210203 | 11 | 315 | 1.6 | 14.5 | 0.00 | 0.00 | 0.00 | 37 | 1018.9 |
| 20260505205700 | 11 | 281 | 3.2 | 14.5 | 0.00 | 0.00 | 0.00 | 36 | 1018.9 |
| 20260505205158 | 11 | 95 | 0.0 | 11.3 | 0.00 | 0.00 | 0.00 | 38 | 1018.8 |
| 20260505204657 | 11 | 167 | 1.6 | 11.3 | 0.00 | 0.00 | 0.00 | 37 | 1018.8 |
| 20260505204158 | 11 | 94 | 0.0 | 14.5 | 0.00 | 0.00 | 0.00 | 37 | 1018.9 |
| 20260505203658 | 11 | 77 | 3.2 | 14.5 | 0.00 | 0.00 | 0.00 | 36 | 1018.9 |
| 20260505203158 | 11 | 195 | 4.8 | 17.7 | 0.00 | 0.00 | 0.00 | 37 | 1018.8 |
| 20260505202654 | 12 | 136 | 8.0 | 17.7 | 0.00 | 0.00 | 0.00 | 37 | 1019.1 |
| 20260505202149 | 12 | 130 | 4.8 | 12.9 | 0.00 | 0.00 | 0.00 | 36 | 1018.9 |
| 20260505201649 | 12 | 130 | 3.2 | 11.3 | 0.00 | 0.00 | 0.00 | 36 | 1018.9 |
| 20260505201412 | 12 | 313 | 3.2 | 16.1 | 0.00 | 0.00 | 0.00 | 38 | 1019.2 |
| 20260505200652 | 12 | 142 | 1.6 | 20.9 | 0.00 | 0.00 | 0.00 | 35 | 1018.9 |
| 20260505200150 | 13 | 132 | 4.8 | 20.9 | 0.00 | 0.00 | 0.00 | 37 | 1018.9 |
| 20260505195645 | 13 | 344 | 6.4 | 17.7 | 0.00 | 0.00 | 0.00 | 37 | 1018.9 |
| 20260505195144 | 13 | 55 | 3.2 | 16.1 | 0.00 | 0.00 | 0.00 | 38 | 1018.8 |
| 20260505194905 | 12 | 147 | 1.6 | 14.5 | 0.00 | 0.00 | 0.00 | 39 | 1018.8 |
| 20260505194411 | 12 | 91 | 1.6 | 25.7 | 0.00 | 0.00 | 0.00 | 38 | 1018.8 |
| 20260505193902 | 13 | 84 | 8.0 | 25.7 | 0.00 | 0.00 | 0.00 | 36 | 1018.8 |
| 20260505193140 | 13 | 69 | 3.2 | 17.7 | 0.00 | 0.00 | 0.00 | 37 | 1018.7 |
| 20260505192635 | 12 | 101 | 1.6 | 17.7 | 0.00 | 0.00 | 0.00 | 40 | 1018.7 |
| 20260505192130 | 12 | 111 | 3.2 | 19.3 | 0.00 | 0.00 | 0.00 | 36 | 1018.7 |
| 20260505191630 | 12 | 128 | 8.0 | 19.3 | 0.00 | 0.00 | 0.00 | 36 | 1018.8 |
| 20260505191126 | 12 | 146 | 1.6 | 17.7 | 0.00 | 0.00 | 0.00 | 38 | 1018.7 |
| 20260505190625 | 12 | 76 | 6.4 | 17.7 | 0.00 | 0.00 | 0.00 | 37 | 1018.8 |
| 20260505190349 | 12 | 75 | 3.2 | 12.9 | 0.00 | 0.00 | 0.00 | 37 | 1018.7 |
| 20260505185845 | 12 | 41 | 1.6 | 16.1 | 0.00 | 0.00 | 0.00 | 40 | 1018.7 |
| 20260505185718 | 12 | 147 | 4.8 | 11.3 | 0.00 | 0.00 | 0.00 | 37 | 1018.7 |
| 20260505184627 | 12 | 75 | 3.2 | 16.1 | 0.00 | 0.00 | 0.00 | 39 | 1018.7 |
| 20260505184126 | 12 | 318 | 1.6 | 17.7 | 0.00 | 0.00 | 0.00 | 39 | 1018.8 |
| 20260505183622 | 12 | 150 | 4.8 | 17.7 | 0.00 | 0.00 | 0.00 | 37 | 1018.8 |
| 20260505183117 | 12 | 74 | 4.8 | 14.5 | 0.00 | 0.00 | 0.00 | 40 | 1018.8 |
| 20260505182618 | 12 | 103 | 3.2 | 12.9 | 0.00 | 0.00 | 0.00 | 38 | 1018.8 |
| 20260505182338 | 11 | 250 | 1.6 | 12.9 | 0.00 | 0.00 | 0.00 | 40 | 1018.8 |
| 20260505181613 | 11 | 136 | 3.2 | 16.1 | 0.00 | 0.00 | 0.00 | 41 | 1018.9 |
| 20260505181115 | 11 | 169 | 3.2 | 19.3 | 0.00 | 0.00 | 0.00 | 42 | 1018.9 |
| 20260505180613 | 11 | 114 | 9.7 | 19.3 | 0.00 | 0.00 | 0.00 | 41 | 1018.9 |
| 20260505180108 | 10 | 107 | 4.8 | 12.9 | 0.00 | 0.00 | 0.00 | 45 | 1018.9 |
| 20260505175603 | 10 | 321 | 4.8 | 17.7 | 0.00 | 0.00 | 0.00 | 43 | 1018.8 |
| 20260505175102 | 10 | 342 | 1.6 | 17.7 | 0.00 | 0.00 | 0.00 | 44 | 1018.8 |
| 20260505174822 | 10 | 107 | 1.6 | 14.5 | 0.00 | 0.00 | 0.00 | 41 | 1018.9 |
| 20260505174103 | 10 | 98 | 1.6 | 14.5 | 0.00 | 0.00 | 0.00 | 43 | 1018.8 |
| 20260505173603 | 10 | 132 | 4.8 | 14.5 | 0.00 | 0.00 | 0.00 | 43 | 1018.8 |
| 20260505173103 | 10 | 101 | 4.8 | 14.5 | 0.00 | 0.00 | 0.00 | 43 | 1018.8 |
| 20260505172824 | 10 | 351 | 1.6 | 14.5 | 0.00 | 0.00 | 0.00 | 44 | 1018.8 |
| 20260505172314 | 11 | 37 | 3.2 | 11.3 | 0.00 | 0.00 | 0.00 | 43 | 1018.7 |
| 20260505171554 | 11 | 330 | 1.6 | 11.3 | 0.00 | 0.00 | 0.00 | 42 | 1018.7 |
| 20260505171326 | 11 | 71 | 1.6 | 6.4 | 0.00 | 0.00 | 0.00 | 41 | 1018.7 |
| 20260505170554 | 11 | 71 | 1.6 | 8.0 | 0.00 | 0.00 | 0.00 | 42 | 1018.7 |
| 20260505170050 | 11 | 125 | 3.2 | 8.0 | 0.00 | 0.00 | 0.00 | 41 | 1018.6 |
| 20260505165544 | 11 | 96 | 1.6 | 14.5 | 0.00 | 0.00 | 0.00 | 42 | 1018.8 |
| 20260505165047 | 11 | 60 | 3.2 | 14.5 | 0.00 | 0.00 | 0.00 | 42 | 1018.8 |
| 20260505164547 | 11 | 5 | 4.8 | 12.9 | 0.00 | 0.00 | 0.00 | 42 | 1018.8 |
| 20260505164046 | 11 | 161 | 0.0 | 11.3 | 0.00 | 0.00 | 0.00 | 44 | 1018.7 |
| 20260505163545 | 11 | 350 | 3.2 | 11.3 | 0.00 | 0.00 | 0.00 | 44 | 1018.7 |
| 20260505163040 | 11 | 152 | 0.0 | 11.3 | 0.00 | 0.00 | 0.00 | 44 | 1018.8 |
| 20260505162535 | 11 | 105 | 3.2 | 6.4 | 0.00 | 0.00 | 0.00 | 43 | 1018.7 |
| 20260505162035 | 10 | 111 | 1.6 | 9.7 | 0.00 | 0.00 | 0.00 | 45 | 1018.7 |
| 20260505161536 | 10 | 47 | 0.0 | 16.1 | 0.00 | 0.00 | 0.00 | 45 | 1018.7 |
| 20260505161036 | 10 | 109 | 4.8 | 16.1 | 0.00 | 0.00 | 0.00 | 43 | 1018.7 |
| 20260505160536 | 10 | 319 | 1.6 | 11.3 | 0.00 | 0.00 | 0.00 | 46 | 1018.6 |
| 20260505153012 | 8 | 107 | 3.2 | 12.9 | 0.00 | 0.00 | 0.00 | 48 | 1018.9 |
| 20260505152508 | 8 | 117 | 3.2 | 12.9 | 0.00 | 0.00 | 0.00 | 48 | 1018.9 |
| 20260505152003 | 8 | 310 | 1.6 | 11.3 | 0.00 | 0.00 | 0.00 | 47 | 1018.9 |
| 20260505151503 | 8 | 115 | 1.6 | 12.9 | 0.00 | 0.00 | 0.00 | 50 | 1018.9 |
| 20260505151002 | 8 | 99 | 1.6 | 14.5 | 0.00 | 0.00 | 0.00 | 48 | 1018.9 |
| 20260505150502 | 8 | 98 | 3.2 | 14.5 | 0.00 | 0.00 | 0.00 | 49 | 1018.9 |
| 20260505140424 | 5 | 137 | 0.0 | 4.8 | 0.00 | 0.00 | 0.00 | 63 | 1018.5 |
| 20260505124851 | 0 | 91 | 0.0 | 1.6 | 0.00 | 0.00 | 0.00 | 85 | 1017.9 |
| 20260505124351 | 0 | 91 | 0.0 | 0.0 | 0.00 | 0.00 | 0.00 | 85 | 1017.8 |
| 20260505123847 | 0 | 91 | 0.0 | 0.0 | 0.00 | 0.00 | 0.00 | 85 | 1017.9 |
| 20260505123342 | 0 | 91 | 0.0 | 0.0 | 0.00 | 0.00 | 0.00 | 84 | 1017.8 |
| 20260505122841 | 0 | 91 | 0.0 | 0.0 | 0.00 | 0.00 | 0.00 | 84 | 1017.8 |
| 20260505122343 | 0 | 91 | 0.0 | 0.0 | 0.00 | 0.00 | 0.00 | 84 | 1017.7 |
| 20260505121832 | 0 | 91 | 0.0 | 0.0 | 0.00 | 0.00 | 0.00 | 84 | 1017.7 |
| 20260505121551 | 0 | 91 | 0.0 | 3.2 | 0.00 | 0.00 | 0.00 | 84 | 1017.6 |
| 20260505120827 | 0 | 91 | 0.0 | 3.2 | 0.00 | 0.00 | 0.00 | 84 | 1017.6 |
| 20260505120322 | 0 | 91 | 0.0 | 0.0 | 0.00 | 0.00 | 0.00 | 84 | 1017.5 |
| 20260505115812 | 0 | 91 | 0.0 | 0.0 | 0.00 | 0.00 | 0.00 | 84 | 1017.5 |
| 20260505115307 | 0 | 91 | 0.0 | 0.0 | 0.00 | 0.00 | 0.00 | 84 | 1017.6 |
| 20260505114809 | 0 | 91 | 0.0 | 0.0 | 0.00 | 0.00 | 0.00 | 84 | 1017.5 |
| 20260505114311 | 0 | 91 | 0.0 | 0.0 | 0.00 | 0.00 | 0.00 | 83 | 1017.5 |
| 20260505114028 | 0 | 91 | 0.0 | 0.0 | 0.00 | 0.00 | 0.00 | 83 | 1017.6 |
| 20260505113303 | 0 | 91 | 0.0 | 0.0 | 0.00 | 0.00 | 0.00 | 83 | 1017.6 |
| 20260505112806 | 0 | 91 | 0.0 | 0.0 | 0.00 | 0.00 | 0.00 | 83 | 1017.5 |
| 20260505112243 | 0 | 91 | 0.0 | 0.0 | 0.00 | 0.00 | 0.00 | 83 | 1017.5 |
| 20260505111743 | 0 | 91 | 0.0 | 1.6 | 0.00 | 0.00 | 0.00 | 83 | 1017.5 |
| 20260505111239 | 0 | 91 | 0.0 | 1.6 | 0.00 | 0.00 | 0.00 | 83 | 1017.5 |
| 20260505110739 | 0 | 91 | 0.0 | 0.0 | 0.00 | 0.00 | 0.00 | 83 | 1017.5 |
| 20260505110242 | 0 | 91 | 0.0 | 0.0 | 0.00 | 0.00 | 0.00 | 83 | 1017.5 |
| 20260505102210 | 1 | 91 | 0.0 | 0.0 | 0.00 | 0.00 | 0.00 | 82 | 1017.5 |
| 20260505101655 | 1 | 91 | 0.0 | 0.0 | 0.00 | 0.00 | 0.00 | 82 | 1017.4 |
| 20260505101405 | 1 | 91 | 0.0 | 0.0 | 0.00 | 0.00 | 0.00 | 82 | 1017.4 |
| 20260505100645 | 1 | 91 | 0.0 | 0.0 | 0.00 | 0.00 | 0.00 | 81 | 1017.4 |
| 20260505100145 | 1 | 91 | 0.0 | 0.0 | 0.00 | 0.00 | 0.00 | 81 | 1017.4 |
| 20260505095901 | 1 | 91 | 0.0 | 0.0 | 0.00 | 0.00 | 0.00 | 80 | 1017.4 |
| 20260505095139 | 1 | 91 | 0.0 | 0.0 | 0.00 | 0.00 | 0.00 | 79 | 1017.4 |
| 20260505094624 | 2 | 91 | 0.0 | 0.0 | 0.00 | 0.00 | 0.00 | 79 | 1017.4 |
| 20260505094122 | 2 | 91 | 0.0 | 1.6 | 0.00 | 0.00 | 0.00 | 79 | 1017.3 |
| 20260505093613 | 2 | 91 | 0.0 | 1.6 | 0.00 | 0.00 | 0.00 | 79 | 1017.2 |
| 20260505093106 | 2 | 91 | 0.0 | 0.0 | 0.00 | 0.00 | 0.00 | 79 | 1017.0 |
| 20260505092830 | 2 | 91 | 0.0 | 0.0 | 0.00 | 0.00 | 0.00 | 79 | 1017.2 |
| 20260505092057 | 2 | 91 | 0.0 | 0.0 | 0.00 | 0.00 | 0.00 | 79 | 1017.2 |
| 20260505091824 | 2 | 91 | 0.0 | 0.0 | 0.00 | 0.00 | 0.00 | 79 | 1017.3 |
| 20260505091057 | 2 | 91 | 0.0 | 0.0 | 0.00 | 0.00 | 0.00 | 79 | 1017.3 |
| 20260505090557 | 2 | 91 | 0.0 | 0.0 | 0.00 | 0.00 | 0.00 | 80 | 1017.3 |
| 20260505090534 | 2 | 91 | 0.0 | 0.0 | 0.00 | 0.00 | 0.00 | 79 | 1017.3 |
| 20260505085547 | 2 | 91 | 0.0 | 0.0 | 0.00 | 0.00 | 0.00 | 79 | 1017.4 |
| 20260505085045 | 2 | 91 | 0.0 | 0.0 | 0.00 | 0.00 | 0.00 | 80 | 1017.4 |
| 20260505084535 | 2 | 91 | 0.0 | 1.6 | 0.00 | 0.00 | 0.00 | 80 | 1017.4 |
| 20260505084028 | 2 | 91 | 0.0 | 1.6 | 0.00 | 0.00 | 0.00 | 80 | 1017.4 |
| 20260505083523 | 2 | 91 | 0.0 | 0.0 | 0.00 | 0.00 | 0.00 | 79 | 1017.4 |
| 20260505083025 | 2 | 91 | 0.0 | 0.0 | 0.00 | 0.00 | 0.00 | 80 | 1017.4 |
| 20260505082519 | 2 | 91 | 0.0 | 1.6 | 0.00 | 0.00 | 0.00 | 80 | 1017.5 |
| 20260505082018 | 2 | 91 | 0.0 | 1.6 | 0.00 | 0.00 | 0.00 | 81 | 1017.5 |
| 20260505081509 | 2 | 91 | 0.0 | 0.0 | 0.00 | 0.00 | 0.00 | 81 | 1017.4 |
| 20260505081009 | 2 | 91 | 0.0 | 1.6 | 0.00 | 0.00 | 0.00 | 81 | 1017.4 |
| 20260505080509 | 2 | 91 | 0.0 | 1.6 | 0.00 | 0.00 | 0.00 | 80 | 1017.4 |
| 20260505080230 | 2 | 91 | 0.0 | 0.0 | 0.00 | 0.00 | 0.00 | 81 | 1017.5 |
| 20260505075504 | 2 | 91 | 0.0 | 0.0 | 0.00 | 0.00 | 0.00 | 80 | 1017.5 |
| 20260505075004 | 2 | 91 | 0.0 | 0.0 | 0.00 | 0.00 | 0.00 | 80 | 1017.5 |
| 20260505074504 | 2 | 91 | 0.0 | 0.0 | 0.00 | 0.00 | 0.00 | 80 | 1017.5 |
| 20260505074007 | 2 | 91 | 0.0 | 1.6 | 0.00 | 0.00 | 0.00 | 81 | 1017.5 |
| 20260505073502 | 2 | 91 | 0.0 | 1.6 | 0.00 | 0.00 | 0.00 | 80 | 1017.4 |
| 20260505073442 | 2 | 91 | 0.0 | 3.2 | 0.00 | 0.00 | 0.00 | 80 | 1017.4 |
| 20260505072500 | 2 | 91 | 0.0 | 3.2 | 0.00 | 0.00 | 0.00 | 80 | 1017.4 |
| 20260505072000 | 3 | 91 | 0.0 | 1.6 | 0.00 | 0.00 | 0.00 | 80 | 1017.3 |
| 20260505071455 | 3 | 91 | 0.0 | 1.6 | 0.00 | 0.00 | 0.00 | 79 | 1017.3 |
| 20260505071442 | 3 | 91 | 0.0 | 3.2 | 0.00 | 0.00 | 0.00 | 80 | 1017.3 |
| 20260505070702 | 3 | 91 | 0.0 | 1.6 | 0.00 | 0.00 | 0.00 | 80 | 1017.3 |
| 20260505065931 | 3 | 91 | 0.0 | 1.6 | 0.00 | 0.00 | 0.00 | 80 | 1017.3 |
| 20260505065659 | 3 | 91 | 0.0 | 0.0 | 0.00 | 0.00 | 0.00 | 79 | 1017.3 |
| 20260505064932 | 3 | 91 | 0.0 | 0.0 | 0.00 | 0.00 | 0.00 | 79 | 1017.3 |
| 20260505064430 | 3 | 91 | 0.0 | 0.0 | 0.00 | 0.00 | 0.00 | 79 | 1017.3 |
| 20260505063931 | 3 | 91 | 0.0 | 1.6 | 0.00 | 0.00 | 0.00 | 79 | 1017.2 |
| 20260505063426 | 3 | 91 | 0.0 | 3.2 | 0.00 | 0.00 | 0.00 | 79 | 1017.3 |
| 20260505062906 | 3 | 91 | 0.0 | 3.2 | 0.00 | 0.00 | 0.00 | 79 | 1017.2 |
| 20260505062406 | 3 | 91 | 0.0 | 0.0 | 0.00 | 0.00 | 0.00 | 79 | 1016.9 |
| 20260505061904 | 3 | 91 | 0.0 | 0.0 | 0.00 | 0.00 | 0.00 | 78 | 1017.2 |
| 20260505061402 | 3 | 91 | 0.0 | 0.0 | 0.00 | 0.00 | 0.00 | 78 | 1017.2 |
| 20260505060902 | 3 | 91 | 0.0 | 0.0 | 0.00 | 0.00 | 0.00 | 77 | 1017.2 |
| 20260505060357 | 3 | 91 | 0.0 | 0.0 | 0.00 | 0.00 | 0.00 | 77 | 1017.3 |
| 20260505055857 | 3 | 91 | 0.0 | 0.0 | 0.00 | 0.00 | 0.00 | 77 | 1017.2 |
| 20260505055357 | 3 | 91 | 0.0 | 0.0 | 0.00 | 0.00 | 0.00 | 76 | 1017.0 |
| 20260505054853 | 3 | 91 | 0.0 | 0.0 | 0.00 | 0.00 | 0.00 | 76 | 1017.0 |
| 20260505054347 | 3 | 91 | 0.0 | 0.0 | 0.00 | 0.00 | 0.00 | 76 | 1017.0 |
| 20260505053847 | 3 | 91 | 0.0 | 1.6 | 0.00 | 0.00 | 0.00 | 76 | 1016.9 |
| 20260505053348 | 4 | 91 | 0.0 | 1.6 | 0.00 | 0.00 | 0.00 | 76 | 1016.9 |